[[{"header":{"parameterUnit":"m.s-1","parameterCategory":1,"la1":30.2991,"la2":30.254,"lo1":-89.0895,"lo2":-89.0444,"dy":0.0017,"dx":0.0017,"nx":28,"ny":28,"refTime":"2023-04-22T21:00:00:Z","depth":0,"parameterNumber":2,"parameterNumberName":"U-component_of_WINDS"},"data":[0,0,0,0,0,0,0,0,0,0,0,0,0,0,0,0,0,0,0,0,0,0,0,0,0,0,0,0,0,0,0,0,0,0,0,0,0,0,0,0,0,0,0,0,0,0,0,0,0,0,0,0,0,0,0,0,0,0,-2.7501,-2.7501,0,-2.7454,-2.7454,-2.7453,-2.739,-2.7389,-2.7388,-2.7387,-2.7339,-2.7339,-2.7338,0,0,0,0,0,0,0,0,0,0,0,0,0,-2.7536,-2.7535,-2.7501,-2.7501,-2.75,-2.7454,-2.7454,-2.7453,-2.7391,-2.7389,-2.7388,-2.7387,-2.7339,-2.7339,-2.7338,0,0,0,0,0,0,0,0,0,0,0,0,0,-2.7508,-2.7535,-2.7501,-2.7463,-2.7459,-2.7455,-2.7454,-2.7453,-2.7391,-2.7389,-2.7388,-2.7386,-2.7339,-2.7339,-2.7338,-2.7367,0,0,-2.7337,-2.7337,0,0,0,0,0,0,0,0,-2.751,-2.7507,-2.7469,-2.7466,-2.7462,-2.7427,-2.7448,-2.7424,-2.7391,-2.7417,-2.7387,-2.7386,-2.7369,-2.7366,-2.7361,-2.7364,-2.7362,-2.7337,-2.7337,-2.7336,-2.7336,0,0,0,0,0,0,0,-2.7512,-2.7508,-2.7483,-2.7469,-2.7464,-2.7448,-2.7443,-2.7443,-2.7403,-2.7415,-2.741,-2.7405,-2.7367,-2.7362,-2.7359,-2.7362,-2.7337,-2.7336,-2.7336,-2.7336,-2.7386,-2.7387,0,0,0,0,0,0,-2.7519,-2.751,-2.7484,-2.7481,-2.7482,-2.7449,-2.7443,-2.7439,-2.7402,-2.7395,-2.7407,-2.7403,-2.7363,-2.736,-2.7357,-2.7388,-2.7336,-2.7336,-2.7336,-2.7384,-2.7386,-2.7388,0,0,0,0,0,0,-2.752,-2.7518,-2.7486,-2.7495,-2.7489,-2.745,-2.7447,-2.7439,-2.7434,-2.7396,-2.7389,-2.7409,-2.7362,-2.7358,-2.7365,-2.7386,-2.7336,-2.7335,-2.7382,-2.7385,-2.7387,-2.745,0,0,0,0,0,0,-2.7522,-2.7518,-2.7529,-2.7495,-2.7489,-2.7495,-2.7448,-2.744,-2.7433,-2.7428,-2.7396,-2.739,-2.736,-2.7366,-2.7364,-2.7384,-2.7335,-2.738,-2.7383,-2.7386,-2.7446,-2.7455,-2.7462,0,0,0,0,0,-2.7523,-2.7549,-2.753,-2.7527,-2.7502,-2.7496,-2.7492,-2.7458,-2.7435,-2.7446,-2.7421,-2.7391,-2.7384,-2.7367,-2.7365,-2.7385,-2.7379,-2.7382,-2.7386,-2.7443,-2.7453,-2.7462,0,0,0,0,0,0,-2.7586,-2.7543,-2.7522,-2.7538,-2.7521,-2.7485,-2.7497,-2.747,-2.746,-2.7455,-2.7412,-2.7406,-2.7418,-2.7402,-2.7384,-2.741,-2.7376,-2.738,-2.742,-2.743,-2.7437,-2.7441,-2.7334,0,0,0,0,0,-2.7601,-2.76,-2.7563,-2.7581,-2.7573,-2.7537,-2.7533,-2.7508,-2.7489,-2.7482,-2.7458,-2.7441,-2.7434,-2.7431,-2.7423,-2.7443,-2.7435,-2.7456,-2.7464,-2.747,-2.7474,-2.7483,-2.7492,-2.74,-2.74,-2.74,0,0,-2.7634,-2.761,-2.7612,-2.7593,-2.7577,-2.7577,-2.7531,-2.7533,-2.7533,-2.7482,-2.7487,-2.7469,-2.7446,-2.746,-2.7465,-2.7447,-2.7497,-2.7475,-2.748,-2.748,-2.7488,-2.7496,-2.7504,-2.7402,-2.7402,-2.7401,0,0,-2.7692,-2.7675,-2.7687,-2.7672,-2.7649,-2.7624,-2.7627,-2.7596,-2.7582,-2.7586,-2.7548,-2.7547,-2.7537,-2.7522,-2.7514,-2.7567,-2.7538,-2.7565,-2.7606,-2.7616,-2.7623,-2.7629,-2.7648,-2.7656,-2.7569,-2.7569,-2.7569,0,-2.7736,-2.7734,-2.7697,-2.7701,-2.7694,-2.7648,-2.766,-2.7647,-2.7622,-2.7618,-2.7598,-2.7585,-2.7566,-2.7576,-2.7589,-2.7583,-2.7585,-2.7569,-2.7625,-2.7631,-2.7636,-2.7654,-2.7661,-2.7572,-2.7572,-2.7572,-2.7571,0,-2.7788,-2.7788,-2.7801,-2.7778,-2.7772,-2.778,-2.7744,-2.7742,-2.7718,-2.7695,-2.77,-2.7676,-2.7663,-2.7663,-2.7639,-2.7669,-2.7659,-2.7633,-2.7598,-2.7649,-2.7665,-2.7671,-2.7577,-2.7576,-2.7575,-2.7574,0,0,-2.7886,-2.7843,-2.7848,-2.7837,-2.7807,-2.7806,-2.7812,-2.7799,-2.7798,-2.7782,-2.7786,-2.7779,-2.7754,-2.7745,-2.7719,-2.7727,-2.7771,-2.77,-2.7698,-2.7714,-2.7802,-2.7822,-2.7831,-2.7751,-2.7752,-2.7753,-2.7804,0,-2.794,-2.7948,-2.7914,-2.7931,-2.793,-2.7886,-2.7891,-2.7873,-2.7853,-2.7848,-2.7825,-2.782,-2.7788,-2.7782,-2.7788,-2.7764,-2.7788,-2.776,-2.7754,-2.7755,-2.7762,-2.7839,-2.786,-2.791,-2.781,-2.7811,-2.7812,0,-2.8003,-2.7991,-2.8008,-2.7977,-2.7976,-2.7981,-2.7966,-2.7963,-2.7941,-2.7926,-2.7915,-2.7885,-2.7888,-2.7855,-2.7858,-2.784,-2.7836,-2.7823,-2.7824,-2.7823,-2.7787,-2.784,-2.7925,-2.7932,-2.7821,-2.782,-2.782,0,-2.8073,-2.8061,-2.8069,-2.8061,-2.8026,-2.803,-2.8016,-2.7993,-2.7987,-2.7974,-2.797,-2.7957,-2.7951,-2.7941,-2.7908,-2.7887,-2.7916,-2.788,-2.7903,-2.7904,-2.7911,-2.7912,-2.7997,-2.7908,-2.7908,-2.7908,-2.7908,0,-2.8137,-2.8149,-2.81,-2.8106,-2.8118,-2.8079,-2.8092,-2.8072,-2.8053,-2.8053,-2.8014,-2.8015,-2.7972,-2.7968,-2.7942,-2.7949,-2.7946,-2.7933,-2.7926,-2.7937,-2.7939,-2.7934,-2.793,-2.791,-2.7909,-2.7909,-2.7909,0,-2.8218,-2.8186,-2.8192,-2.8157,-2.8149,-2.8159,-2.813,-2.8133,-2.8109,-2.811,-2.8108,-2.8071,-2.8065,-2.8031,-2.8017,-2.7999,-2.8015,-2.8001,-2.8023,-2.8018,-2.8043,-2.8042,-2.8129,-2.8138,-2.8044,-2.8045,-2.8045,0,-2.8261,-2.8269,-2.8235,-2.8233,-2.822,-2.8217,-2.8211,-2.8172,-2.8168,-2.8144,-2.815,-2.814,-2.8131,-2.8122,-2.8094,-2.8083,-2.8068,-2.8099,-2.8066,-2.8077,-2.8069,-2.8069,-2.8069,-2.8107,-2.8108,-2.8109,-2.811,0,-2.8341,-2.8324,-2.8317,-2.8304,-2.8298,-2.8286,-2.8272,-2.8272,-2.8229,-2.8226,-2.8219,-2.8211,-2.8196,-2.8187,-2.8171,-2.8155,-2.8126,-2.812,-2.8125,-2.8136,-2.8149,-2.8143,-2.8043,-2.8119,-2.8118,-2.8117,-2.8117,-2.8116,-2.8404,-2.8409,-2.8386,-2.8379,-2.8364,-2.8352,-2.8353,-2.833,-2.8323,-2.8308,-2.8286,-2.8282,-2.826,-2.8235,-2.8222,-2.8218,-2.8201,-2.8208,-2.8209,-2.8212,-2.8217,-2.8149,-2.8215,-2.8214,-2.8214,-2.8214,-2.8214,0,-2.8482,-2.8465,-2.8459,-2.844,-2.8435,-2.8407,-2.8389,-2.8387,-2.8384,-2.8366,-2.8357,-2.8349,-2.834,-2.831,-2.8298,-2.8301,-2.8287,-2.8299,-2.8298,-2.8295,-2.8233,-2.8231,-2.831,-2.831,-2.831,-2.831,-2.831,-2.831,-2.8522,-2.8529,-2.851,-2.851,-2.8492,-2.8488,-2.8481,-2.8469,-2.8454,-2.8447,-2.8439,-2.842,-2.8397,-2.8383,-2.8373,-2.8365,-2.8362,-2.8379,-2.8366,-2.8309,-2.83,-2.8291,-2.8288,-2.8379,-2.8379,-2.8428,-2.8429,-2.8429]},{"header":{"parameterUnit":"m.s-1","parameterCategory":1,"la1":30.2991,"la2":30.254,"lo1":-89.0895,"lo2":-89.0444,"dy":0.0017,"dx":0.0017,"nx":28,"ny":28,"refTime":"2023-04-22T21:00:00:Z","depth":0,"parameterNumber":3,"parameterNumberName":"V-component_of_WINDS"},"data":[0,0,0,0,0,0,0,0,0,0,0,0,0,0,0,0,0,0,0,0,0,0,0,0,0,0,0,0,0,0,0,0,0,0,0,0,0,0,0,0,0,0,0,0,0,0,0,0,0,0,0,0,0,0,0,0,0,0,-5.4455,-5.4455,0,-5.4502,-5.4502,-5.4503,-5.4441,-5.4438,-5.4436,-5.4434,-5.4478,-5.4482,-5.4485,0,0,0,0,0,0,0,0,0,0,0,0,0,-5.4308,-5.4311,-5.4455,-5.4455,-5.4456,-5.4502,-5.4502,-5.4503,-5.4441,-5.4438,-5.4436,-5.4433,-5.4477,-5.4481,-5.4485,0,0,0,0,0,0,0,0,0,0,0,0,0,-5.4365,-5.4312,-5.4455,-5.4431,-5.4429,-5.4502,-5.4502,-5.4503,-5.4442,-5.4438,-5.4435,-5.4432,-5.4476,-5.4481,-5.4486,-5.4583,0,0,-5.4501,-5.4503,0,0,0,0,0,0,0,0,-5.4362,-5.437,-5.4434,-5.4433,-5.4431,-5.4462,-5.4467,-5.453,-5.4443,-5.4437,-5.4434,-5.443,-5.4475,-5.448,-5.4496,-5.4585,-5.4587,-5.4501,-5.4504,-5.4506,-5.4507,0,0,0,0,0,0,0,-5.4358,-5.4368,-5.4473,-5.4435,-5.4433,-5.4416,-5.4421,-5.4478,-5.4474,-5.4437,-5.4433,-5.4439,-5.4474,-5.4492,-5.4497,-5.4587,-5.4501,-5.4505,-5.4508,-5.451,-5.4759,-5.4762,0,0,0,0,0,0,-5.4357,-5.4365,-5.4472,-5.4475,-5.4387,-5.4422,-5.4427,-5.4455,-5.4473,-5.4473,-5.4442,-5.4436,-5.4485,-5.4491,-5.4498,-5.4614,-5.4506,-5.4511,-5.4513,-5.4755,-5.476,-5.4764,0,0,0,0,0,0,-5.4354,-5.4367,-5.447,-5.4419,-5.4431,-5.4428,-5.4461,-5.4458,-5.4476,-5.4477,-5.4476,-5.4461,-5.4483,-5.4491,-5.4563,-5.4615,-5.4513,-5.4517,-5.4751,-5.4757,-5.4762,-5.4846,0,0,0,0,0,0,-5.435,-5.4367,-5.4405,-5.442,-5.4434,-5.4535,-5.4464,-5.4461,-5.4485,-5.4478,-5.4495,-5.4494,-5.4481,-5.4556,-5.4568,-5.462,-5.4521,-5.4746,-5.4753,-5.476,-5.4839,-5.4854,-5.4867,0,0,0,0,0,-5.4345,-5.4425,-5.4407,-5.442,-5.4481,-5.4538,-5.4546,-5.4529,-5.4489,-5.4527,-5.4528,-5.4494,-5.4607,-5.4564,-5.4576,-5.4631,-5.4743,-5.4751,-5.4759,-5.4833,-5.4851,-5.4867,0,0,0,0,0,0,-5.4414,-5.4427,-5.4406,-5.4494,-5.4516,-5.4528,-5.4574,-5.4549,-5.4582,-5.4573,-5.455,-5.4555,-5.4631,-5.4638,-5.4589,-5.4726,-5.4668,-5.4679,-5.4719,-5.4737,-5.4751,-5.4748,-5.4525,0,0,0,0,0,-5.444,-5.4487,-5.4495,-5.4571,-5.4583,-5.4577,-5.4601,-5.4587,-5.4608,-5.4616,-5.4622,-5.4643,-5.4683,-5.471,-5.4747,-5.4839,-5.4842,-5.4882,-5.4897,-5.4908,-5.4918,-5.4968,-5.4987,-5.4791,-5.4791,-5.4791,0,0,-5.4493,-5.4506,-5.4536,-5.4585,-5.46,-5.4649,-5.4585,-5.4638,-5.4674,-5.4624,-5.4693,-5.4698,-5.4719,-5.4802,-5.4838,-5.4809,-5.4973,-5.4919,-5.4928,-5.4932,-5.4979,-5.4997,-5.5014,-5.4796,-5.4795,-5.4794,0,0,-5.4614,-5.4629,-5.4695,-5.4712,-5.4736,-5.4731,-5.4747,-5.4763,-5.4765,-5.4834,-5.4798,-5.4839,-5.4908,-5.4925,-5.4943,-5.5072,-5.5042,-5.5084,-5.5158,-5.5207,-5.5222,-5.5236,-5.5283,-5.53,-5.5094,-5.5094,-5.5094,0,-5.4677,-5.475,-5.4731,-5.4788,-5.4811,-5.4769,-5.4836,-5.4852,-5.4887,-5.4903,-5.487,-5.4957,-5.4968,-5.5055,-5.5087,-5.5102,-5.5119,-5.5083,-5.5222,-5.5235,-5.5248,-5.5292,-5.531,-5.5099,-5.5099,-5.5098,-5.5098,0,-5.4826,-5.4876,-5.4926,-5.4963,-5.4991,-5.5052,-5.5042,-5.5073,-5.5056,-5.5055,-5.5125,-5.5137,-5.5176,-5.5195,-5.5179,-5.528,-5.5261,-5.5226,-5.5167,-5.5272,-5.5313,-5.533,-5.5107,-5.5105,-5.5103,-5.5102,0,0,-5.4992,-5.5019,-5.5038,-5.5054,-5.5078,-5.5116,-5.5175,-5.5215,-5.5242,-5.5267,-5.5316,-5.5376,-5.5343,-5.5363,-5.5348,-5.5391,-5.5493,-5.535,-5.535,-5.5377,-5.5606,-5.5634,-5.5654,-5.5473,-5.5476,-5.5479,-5.5605,0,-5.5115,-5.5219,-5.5205,-5.5304,-5.5351,-5.5312,-5.5363,-5.5383,-5.5384,-5.5422,-5.5421,-5.5465,-5.5418,-5.5431,-5.5471,-5.5472,-5.5539,-5.5463,-5.5518,-5.5521,-5.5516,-5.5676,-5.5705,-5.5824,-5.5621,-5.5624,-5.5626,0,-5.5272,-5.5305,-5.541,-5.5428,-5.5447,-5.5494,-5.5529,-5.5567,-5.5588,-5.5585,-5.5609,-5.5586,-5.5643,-5.5584,-5.5663,-5.5612,-5.5633,-5.5637,-5.5641,-5.5647,-5.558,-5.5687,-5.5861,-5.5879,-5.5651,-5.5649,-5.5647,0,-5.5385,-5.5455,-5.5527,-5.5542,-5.5564,-5.5598,-5.5609,-5.5627,-5.5652,-5.5682,-5.5698,-5.5735,-5.5755,-5.5783,-5.577,-5.5728,-5.5853,-5.5791,-5.5852,-5.5852,-5.5881,-5.5879,-5.6062,-5.5893,-5.5893,-5.5892,-5.5892,0,-5.5524,-5.559,-5.5579,-5.5623,-5.5696,-5.5678,-5.575,-5.5755,-5.5772,-5.5816,-5.5783,-5.5825,-5.5805,-5.5845,-5.5835,-5.5903,-5.5912,-5.5911,-5.5908,-5.5915,-5.5916,-5.593,-5.5922,-5.5897,-5.5896,-5.5895,-5.5894,0,-5.5663,-5.5658,-5.5734,-5.5749,-5.5755,-5.5808,-5.582,-5.5861,-5.5859,-5.5915,-5.5927,-5.5924,-5.597,-5.5959,-5.6009,-5.6002,-5.6088,-5.6074,-5.6082,-5.6079,-5.614,-5.6135,-5.634,-5.6366,-5.6179,-5.618,-5.6182,0,-5.5753,-5.5803,-5.5824,-5.5853,-5.5866,-5.5912,-5.5938,-5.5921,-5.595,-5.5978,-5.6016,-5.6059,-5.6093,-5.6168,-5.6169,-5.6206,-5.6193,-5.6262,-5.6199,-5.6205,-5.6196,-5.6194,-5.6199,-5.6276,-5.6278,-5.6279,-5.6281,0,-5.5914,-5.5909,-5.5949,-5.5988,-5.602,-5.605,-5.6076,-5.6101,-5.6086,-5.612,-5.6167,-5.6193,-5.6245,-5.6288,-5.6323,-5.6332,-5.6305,-5.6301,-5.6317,-5.6325,-5.6329,-5.6329,-5.6118,-5.6296,-5.6295,-5.6294,-5.6293,-5.6292,-5.6031,-5.6075,-5.6097,-5.6142,-5.6161,-5.6186,-5.6227,-5.623,-5.627,-5.6312,-5.6299,-5.6353,-5.6373,-5.6417,-5.6431,-5.6472,-5.6446,-5.6469,-5.6475,-5.6482,-5.649,-5.6321,-5.6478,-5.6478,-5.6477,-5.6477,-5.6477,0,-5.6191,-5.6204,-5.6246,-5.6285,-5.6321,-5.6293,-5.632,-5.6352,-5.6401,-5.6422,-5.6457,-5.6511,-5.6553,-5.6558,-5.6597,-5.6629,-5.6618,-5.664,-5.6638,-5.6641,-5.6511,-5.6493,-5.6649,-5.6649,-5.6649,-5.6649,-5.6649,-5.6649,-5.6279,-5.6352,-5.635,-5.6431,-5.6442,-5.6496,-5.6515,-5.6538,-5.6555,-5.6618,-5.6654,-5.6657,-5.6672,-5.6712,-5.6749,-5.6749,-5.6765,-5.6793,-5.6789,-5.6667,-5.665,-5.6634,-5.6617,-5.6797,-5.6797,-5.6916,-5.6917,-5.6918]}]]